Regional Weather Roundup
Issued by NWS Midland/Odessa, TX

Home | Current Version | Previous Version | Text Only | Print | Product List | Glossary On
Versions: 1 2 3 4 5 6 7 8 9 10 11 12 13 14 15 16 17 18 19 20 21 22 23 24 25 26 27 28 29 30 31 32 33 34 35 36 37 38 39 40 41 42 43 44 45 46 47 48 49 50
000
ASUS44 KMAF 230402
RWRMAF
MIDLAND AREA WEATHER ROUNDUP
NATIONAL WEATHER SERVICE MIDLAND TX
1100 PM CDT FRI AUG 22 2014

...IN SOUTHWEST TEXAS AND SOUTHEAST NEW MEXICO...

CITY           SKY/WX    TMP DP  RH WIND       PRES   REMARKS
ALPINE         CLOUDY    70  66  86 CALM      30.17S
ANDREWS        MOCLDY    80  58  47 CALM      30.05R
ARTESIA        MOCLDY    77  59  53 S9        30.06R
BIG SPRING     CLEAR     86  48  27 SE17      30.03R
CARLSBAD       CLOUDY    74  63  68 S6        30.04S
DRYDEN           N/A     92  39  15 SE17G25   29.97R
FORT STOCKTON  CLOUDY    84  55  36 S7        30.02R
GUAD PASS      CLOUDY    70  58  65 SW8       30.20R
HOBBS          CLOUDY    72  64  78 SW14      30.09S
MARFA          CLOUDY    68  61  77 SW29G45   30.19R THUNDER
MIDLAND AIRPK  MOCLDY    87  52  29 S10       30.03R
MIDLAND INTL   MOCLDY    86  55  34 S14       30.01R
ODESSA         CLOUDY    86  54  33 S12       30.03R
PECOS          CLOUDY    74  66  77 N7        30.01R
PRESIDIO       CLOUDY    76  67  73 W8        30.01R
SEMINOLE       CLOUDY    79  57  46 CALM      30.06R
SNYDER         CLEAR     83  51  33 SE12      30.02R
WINK           CLOUDY    77  69  76 NE5       30.01R
$$
...OTHER STATIONS IN TEXAS...

CITY           SKY/WX    TMP DP  RH WIND       PRES   REMARKS
ABILENE        CLEAR     87  52  29 S14       29.99R
AMARILLO       MOCLDY    72  61  68 W13       30.04F
AUSTIN         CLEAR     86  67  52 S13G22    29.99R
BROWNSVILLE    CLEAR     82  78  88 SE9       30.01R
CORPUS CHRISTI PTCLDY    82  75  79 SE12      30.00S
DALLAS FTW     CLEAR     89  67  47 S12       29.96R
DEL RIO        CLEAR     89  46  22 SE8       29.92R
EL PASO        LGT RAIN  75  61  61 SW8       30.09R
HOUSTON INT    PTCLDY    82  74  76 S6        30.03S
LUBBOCK        PTCLDY    84  51  31 S18       30.03R
SAN ANGELO     CLEAR     82  54  37 SE9       29.99R
SAN ANTONIO    CLEAR     85  66  53 SE16      30.02R
WACO           CLEAR     89  66  46 SE18      29.97S
WICHITA FALLS  NOT AVBL
$$
...OTHER LOCATIONS IN NEW MEXICO...

CITY           SKY/WX    TMP DP  RH WIND       PRES   REMARKS
ALAMAGORDO     PTCLDY    64  63  94 CALM      30.12R
ALBUQUERQUE    PTCLDY    61  55  81 SW5       30.16S
CANNON AFB     NOT AVBL
CLOVIS           N/A     68  61  77 S18       30.14R
HOLLOMAN AFB   PTCLDY    68  63  83 CALM      30.10R
ROSWELL        MOCLDY    76  58  53 S7        30.04R
RUIDOSO        MOCLDY    57  55  94 W6        30.27R
SANTA FE       PTCLDY    59  55  87 S3        30.20S
TRUTH OR CONSE PTCLDY    67  60  78 N6        30.14R
TUCUMCARI      CLOUDY    78  56  46 S8        30.02R
$$


USA.gov is the U.S. government's official web portal to all federal, state and local government web resources and services.